This is the latest recevied weather packets stored in our database for station/object SR6WXP. If no packets are shown the sender has not sent any weather packets the latest 1 day(s).
| Time | Temp. | Humidity | Pressure | Rain* | Wind** | Luminosity | Snow |
|---|---|---|---|---|---|---|---|
| 1778085632 | 22.78° C | 50% | 981.9 hPa | - | - | - | - |
| 1778084672 | 22.78° C | 50% | 982 hPa | - | - | - | - |
| 1778083460 | 22.78° C | 50% | 982.1 hPa | - | - | - | - |
| 1778083217 | 22.78° C | 51% | 982.2 hPa | - | - | - | - |
| 1778082496 | 22.78° C | 51% | 982.4 hPa | - | - | - | - |
| 1778081054 | 22.78° C | 50% | 982.6 hPa | - | - | - | - |
| 1778079367 | 22.78° C | 46% | 982.7 hPa | - | - | - | - |
| 1778079127 | 23.33° C | 46% | 982.7 hPa | - | - | - | - |
| 1778075755 | 23.33° C | 44% | 982.9 hPa | - | - | - | - |
| 1778074786 | 23.33° C | 44% | 983.1 hPa | - | - | - | - |
| 1778074545 | 23.33° C | 44% | 983.1 hPa | - | - | - | - |
| 1778074303 | 23.33° C | 44% | 983.1 hPa | - | - | - | - |
| 1778073822 | 23.33° C | 44% | 983.1 hPa | - | - | - | - |
| 1778071656 | 23.33° C | 43% | 983.2 hPa | - | - | - | - |
| 1778070694 | 23.33° C | 44% | 983.2 hPa | - | - | - | - |
| 1778070454 | 23.33° C | 44% | 983.3 hPa | - | - | - | - |
| 1778070214 | 22.78° C | 45% | 983.4 hPa | - | - | - | - |
| 1778069972 | 22.78° C | 45% | 983.4 hPa | - | - | - | - |
| 1778069732 | 22.78° C | 45% | 983.4 hPa | - | - | - | - |
| 1778068290 | 22.78° C | 49% | 983.2 hPa | - | - | - | - |
| 1778065883 | 21.67° C | 52% | 983.4 hPa | - | - | - | - |
| 1778064431 | 21.11° C | 54% | 983.5 hPa | - | - | - | - |
| 1778064191 | 21.11° C | 54% | 983.5 hPa | - | - | - | - |
| 1778063949 | 20.56° C | 55% | 983.4 hPa | - | - | - | - |
| 1778063709 | 20.56° C | 55% | 983.4 hPa | - | - | - | - |
* Rain since midnight (hover to see other rain measurements)
** Current wind speed in m/s (hover to see current wind gust speed)